Time,TemperatureF,DewpointF,PressureIn,WindDirection,WindDirectionDegrees,WindSpeedMPH,WindSpeedGustMPH,Humidity,HourlyPrecipIn,Conditions,Clouds,dailyrainin,SolarRadiationWatts/m^2,SoftwareType,DateUTC
2013-07-17 00:22:00,77.0,22.0,-100.00,WSW,254,9.0,19.0,13,0.00,,,-99.99,0.000000,,2013-07-17 07:22:00,
2013-07-17 00:32:00,77.0,22.0,-100.00,WSW,254,9.0,19.0,13,0.00,,,-99.99,0.000000,,2013-07-17 07:32:00,
2013-07-17 00:42:00,77.0,22.0,-100.00,WSW,254,9.0,19.0,13,0.00,,,-99.99,0.000000,,2013-07-17 07:42:00,
2013-07-17 00:51:00,70.0,25.0,-100.00,East,95,4.0,15.0,18,0.00,,,-99.99,0.000000,,2013-07-17 07:51:00,
2013-07-17 01:22:00,70.0,25.0,-100.00,East,95,4.0,15.0,18,0.00,,,-99.99,0.000000,,2013-07-17 08:22:00,
2013-07-17 01:32:00,70.0,25.0,-100.00,East,95,4.0,15.0,18,0.00,,,-99.99,0.000000,,2013-07-17 08:32:00,
2013-07-17 01:42:00,70.0,25.0,-100.00,East,95,4.0,15.0,18,0.00,,,-99.99,0.000000,,2013-07-17 08:42:00,
2013-07-17 01:51:00,70.0,26.0,-100.00,SSE,148,3.0,6.0,19,0.00,,,-99.99,0.000000,,2013-07-17 08:51:00,
2013-07-17 02:12:00,70.0,26.0,-100.00,SSE,148,3.0,6.0,19,0.00,,,-99.99,0.000000,,2013-07-17 09:12:00,
2013-07-17 02:22:00,70.0,26.0,-100.00,SSE,148,3.0,6.0,19,0.00,,,-99.99,0.000000,,2013-07-17 09:22:00,
2013-07-17 02:32:00,70.0,26.0,-100.00,SSE,148,3.0,6.0,19,0.00,,,-99.99,0.000000,,2013-07-17 09:32:00,
2013-07-17 02:43:00,70.0,26.0,-100.00,SSE,148,3.0,6.0,19,0.00,,,-99.99,0.000000,,2013-07-17 09:43:00,
2013-07-17 02:51:00,65.0,24.0,-100.00,SE,131,1.0,6.0,21,0.00,,,-99.99,0.000000,,2013-07-17 09:51:00,
2013-07-17 03:11:00,65.0,24.0,-100.00,SE,131,1.0,6.0,21,0.00,,,-99.99,0.000000,,2013-07-17 10:11:00,
2013-07-17 03:22:00,65.0,24.0,-100.00,SE,131,1.0,6.0,21,0.00,,,-99.99,0.000000,,2013-07-17 10:22:00,
2013-07-17 03:32:00,65.0,24.0,-100.00,SE,131,1.0,6.0,21,0.00,,,-99.99,0.000000,,2013-07-17 10:32:00,
2013-07-17 03:43:00,65.0,24.0,-100.00,SE,131,1.0,6.0,21,0.00,,,-99.99,0.000000,,2013-07-17 10:43:00,
2013-07-17 03:51:00,66.0,26.0,-100.00,SSW,209,1.0,4.0,22,0.00,,,-99.99,0.000000,,2013-07-17 10:51:00,
2013-07-17 04:11:00,66.0,26.0,-100.00,SSW,209,1.0,4.0,22,0.00,,,-99.99,0.000000,,2013-07-17 11:11:00,
2013-07-17 04:22:00,66.0,26.0,-100.00,SSW,209,1.0,4.0,22,0.00,,,-99.99,0.000000,,2013-07-17 11:22:00,
2013-07-17 04:32:00,66.0,26.0,-100.00,SSW,209,1.0,4.0,22,0.00,,,-99.99,0.000000,,2013-07-17 11:32:00,
2013-07-17 04:42:00,66.0,26.0,-100.00,SSW,209,1.0,4.0,22,0.00,,,-99.99,0.000000,,2013-07-17 11:42:00,
2013-07-17 04:51:00,66.0,25.0,-100.00,ESE,111,2.0,4.0,21,0.00,,,-99.99,0.000000,,2013-07-17 11:51:00,
2013-07-17 05:22:00,66.0,25.0,-100.00,ESE,111,2.0,4.0,21,0.00,,,-99.99,0.000000,,2013-07-17 12:22:00,
2013-07-17 05:32:00,66.0,25.0,-100.00,ESE,111,2.0,4.0,21,0.00,,,-99.99,0.000000,,2013-07-17 12:32:00,
2013-07-17 05:42:00,66.0,25.0,-100.00,ESE,111,2.0,4.0,21,0.00,,,-99.99,0.000000,,2013-07-17 12:42:00,
2013-07-17 05:51:00,64.0,25.0,-100.00,ESE,102,1.0,6.0,23,0.00,,,-99.99,0.000000,,2013-07-17 12:51:00,
2013-07-17 06:22:00,64.0,25.0,-100.00,ESE,102,1.0,6.0,23,0.00,,,-99.99,0.000000,,2013-07-17 13:22:00,
2013-07-17 06:32:00,64.0,25.0,-100.00,ESE,102,1.0,6.0,23,0.00,,,-99.99,0.000000,,2013-07-17 13:32:00,
2013-07-17 06:43:00,64.0,25.0,-100.00,ESE,102,1.0,6.0,23,0.00,,,-99.99,0.000000,,2013-07-17 13:43:00,
2013-07-17 06:51:00,70.0,29.0,-100.00,WNW,286,1.0,4.0,22,0.00,,,-99.99,55.000000,,2013-07-17 13:51:00,
2013-07-17 07:22:00,70.0,29.0,-100.00,WNW,286,1.0,4.0,22,0.00,,,-99.99,55.000000,,2013-07-17 14:22:00,
2013-07-17 07:32:00,70.0,29.0,-100.00,WNW,286,1.0,4.0,22,0.00,,,-99.99,55.000000,,2013-07-17 14:32:00,
2013-07-17 07:43:00,70.0,29.0,-100.00,WNW,286,1.0,4.0,22,0.00,,,-99.99,55.000000,,2013-07-17 14:43:00,
2013-07-17 07:51:00,74.0,30.0,-100.00,ESE,106,4.0,6.0,20,0.00,,,-99.99,271.000000,,2013-07-17 14:51:00,
2013-07-17 08:12:00,74.0,30.0,-100.00,ESE,106,4.0,6.0,20,0.00,,,-99.99,271.000000,,2013-07-17 15:12:00,
2013-07-17 08:21:00,74.0,30.0,-100.00,ESE,106,4.0,6.0,20,0.00,,,-99.99,271.000000,,2013-07-17 15:21:00,
2013-07-17 08:32:00,74.0,30.0,-100.00,ESE,106,4.0,6.0,20,0.00,,,-99.99,271.000000,,2013-07-17 15:32:00,
2013-07-17 08:42:00,74.0,30.0,-100.00,ESE,106,4.0,6.0,20,0.00,,,-99.99,271.000000,,2013-07-17 15:42:00,
2013-07-17 09:51:00,82.0,33.0,-100.00,East,92,4.0,9.0,17,-99.99,,,-99.99,695.000000,,2013-07-17 16:51:00,
2013-07-17 10:21:00,82.0,33.0,-100.00,East,92,4.0,9.0,17,-99.99,,,-99.99,695.000000,,2013-07-17 17:21:00,
2013-07-17 10:32:00,82.0,33.0,-100.00,East,92,4.0,9.0,17,-99.99,,,-99.99,695.000000,,2013-07-17 17:32:00,
2013-07-17 10:43:00,82.0,33.0,-100.00,East,92,4.0,9.0,17,-99.99,,,-99.99,695.000000,,2013-07-17 17:43:00,
2013-07-17 10:51:00,83.0,32.0,-100.00,SE,125,7.0,11.0,16,0.00,,,0.00,867.000000,,2013-07-17 17:51:00,
2013-07-17 11:32:00,83.0,32.0,-100.00,SE,125,7.0,11.0,16,0.00,,,0.00,867.000000,,2013-07-17 18:32:00,
2013-07-17 11:43:00,83.0,32.0,-100.00,SE,125,7.0,11.0,16,0.00,,,0.00,867.000000,,2013-07-17 18:43:00,
2013-07-17 11:51:00,87.0,26.0,-100.00,ESE,119,5.0,15.0,11,0.00,,,0.00,992.000000,,2013-07-17 18:51:00,
2013-07-17 12:22:00,87.0,26.0,-100.00,ESE,119,5.0,15.0,11,0.00,,,0.00,992.000000,,2013-07-17 19:22:00,
2013-07-17 12:32:00,87.0,26.0,-100.00,ESE,119,5.0,15.0,11,0.00,,,0.00,992.000000,,2013-07-17 19:32:00,
2013-07-17 12:43:00,87.0,26.0,-100.00,ESE,119,5.0,15.0,11,0.00,,,0.00,992.000000,,2013-07-17 19:43:00,
2013-07-17 12:51:00,89.0,23.0,-100.00,SE,133,7.0,14.0,9,0.00,,,0.00,1057.000000,,2013-07-17 19:51:00,
2013-07-17 13:22:00,89.0,23.0,-100.00,SE,133,7.0,14.0,9,0.00,,,0.00,1057.000000,,2013-07-17 20:22:00,
2013-07-17 13:33:00,89.0,23.0,-100.00,SE,133,7.0,14.0,9,0.00,,,0.00,1057.000000,,2013-07-17 20:33:00,
2013-07-17 13:43:00,89.0,23.0,-100.00,SE,133,7.0,14.0,9,0.00,,,0.00,1057.000000,,2013-07-17 20:43:00,
2013-07-17 13:51:00,92.0,19.0,-100.00,ESE,115,12.0,18.0,7,0.00,,,0.00,1065.000000,,2013-07-17 20:51:00,
2013-07-17 14:22:00,92.0,19.0,-100.00,ESE,115,12.0,18.0,7,0.00,,,0.00,1065.000000,,2013-07-17 21:22:00,
2013-07-17 14:32:00,92.0,19.0,-100.00,ESE,115,12.0,18.0,7,0.00,,,0.00,1065.000000,,2013-07-17 21:32:00,
2013-07-17 14:42:00,92.0,19.0,-100.00,ESE,115,12.0,18.0,7,0.00,,,0.00,1065.000000,,2013-07-17 21:42:00,
2013-07-17 14:51:00,94.0,13.0,-100.00,SE,144,10.0,20.0,5,0.00,,,0.00,1026.000000,,2013-07-17 21:51:00,
2013-07-17 15:21:00,94.0,13.0,-100.00,SE,144,10.0,20.0,5,0.00,,,0.00,1026.000000,,2013-07-17 22:21:00,
2013-07-17 15:32:00,94.0,13.0,-100.00,SE,144,10.0,20.0,5,0.00,,,0.00,1026.000000,,2013-07-17 22:32:00,
2013-07-17 15:43:00,94.0,13.0,-100.00,SE,144,10.0,20.0,5,0.00,,,0.00,1026.000000,,2013-07-17 22:43:00,
2013-07-17 15:51:00,96.0,3.0,-100.00,SE,141,5.0,23.0,3,0.00,,,0.00,921.000000,,2013-07-17 22:51:00,
2013-07-17 16:42:00,96.0,3.0,-100.00,SE,141,5.0,23.0,3,0.00,,,0.00,921.000000,,2013-07-17 23:42:00,
2013-07-17 16:51:00,94.0,2.0,-100.00,South,180,7.0,19.0,3,0.00,,,0.00,765.000000,,2013-07-17 23:51:00,
2013-07-17 17:22:00,94.0,2.0,-100.00,South,180,7.0,19.0,3,0.00,,,0.00,765.000000,,2013-07-18 00:22:00,
2013-07-17 17:33:00,94.0,2.0,-100.00,South,180,7.0,19.0,3,0.00,,,0.00,765.000000,,2013-07-18 00:33:00,
2013-07-17 17:42:00,94.0,2.0,-100.00,South,180,7.0,19.0,3,0.00,,,0.00,765.000000,,2013-07-18 00:42:00,
2013-07-17 17:51:00,95.0,14.0,-100.00,South,189,7.0,18.0,5,0.00,,,0.00,544.000000,,2013-07-18 00:51:00,
2013-07-17 18:22:00,95.0,14.0,-100.00,South,189,7.0,18.0,5,0.00,,,0.00,544.000000,,2013-07-18 01:22:00,
2013-07-17 18:32:00,95.0,14.0,-100.00,South,189,7.0,18.0,5,0.00,,,0.00,544.000000,,2013-07-18 01:32:00,
2013-07-17 18:42:00,95.0,14.0,-100.00,South,189,7.0,18.0,5,0.00,,,0.00,544.000000,,2013-07-18 01:42:00,
2013-07-17 18:51:00,91.0,11.0,-100.00,South,173,9.0,17.0,5,0.00,,,-99.99,33.000000,,2013-07-18 01:51:00,
2013-07-17 19:21:00,91.0,11.0,-100.00,South,173,9.0,17.0,5,0.00,,,-99.99,33.000000,,2013-07-18 02:21:00,
2013-07-17 19:32:00,91.0,11.0,-100.00,South,173,9.0,17.0,5,0.00,,,-99.99,33.000000,,2013-07-18 02:32:00,
2013-07-17 19:42:00,91.0,11.0,-100.00,South,173,9.0,17.0,5,0.00,,,-99.99,33.000000,,2013-07-18 02:42:00,
2013-07-17 20:51:00,84.0,31.0,-100.00,WSW,242,15.0,23.0,15,0.00,,,0.00,2.000000,,2013-07-18 03:51:00,
2013-07-17 21:12:00,84.0,31.0,-100.00,WSW,242,15.0,23.0,15,0.00,,,0.00,2.000000,,2013-07-18 04:12:00,
2013-07-17 21:22:00,84.0,31.0,-100.00,WSW,242,15.0,23.0,15,0.00,,,0.00,2.000000,,2013-07-18 04:22:00,
2013-07-17 21:32:00,84.0,31.0,-100.00,WSW,242,15.0,23.0,15,0.00,,,0.00,2.000000,,2013-07-18 04:32:00,
2013-07-17 21:43:00,84.0,31.0,-100.00,WSW,242,15.0,23.0,15,0.00,,,0.00,2.000000,,2013-07-18 04:43:00,
2013-07-17 21:51:00,85.0,27.0,-100.00,WSW,245,11.0,21.0,12,0.00,,,0.00,0.000000,,2013-07-18 04:51:00,
2013-07-17 22:21:00,85.0,27.0,-100.00,WSW,245,11.0,21.0,12,0.00,,,0.00,0.000000,,2013-07-18 05:21:00,
2013-07-17 22:32:00,85.0,27.0,-100.00,WSW,245,11.0,21.0,12,0.00,,,0.00,0.000000,,2013-07-18 05:32:00,
2013-07-17 22:42:00,85.0,27.0,-100.00,WSW,245,11.0,21.0,12,0.00,,,0.00,0.000000,,2013-07-18 05:42:00,
2013-07-17 22:51:00,83.0,34.0,-100.00,WNW,293,7.0,13.0,17,0.00,,,0.00,0.000000,,2013-07-18 05:51:00,
2013-07-17 23:22:00,83.0,34.0,-100.00,WNW,293,7.0,13.0,17,0.00,,,0.00,0.000000,,2013-07-18 06:22:00,
2013-07-17 23:32:00,83.0,34.0,-100.00,WNW,293,7.0,13.0,17,0.00,,,0.00,0.000000,,2013-07-18 06:32:00,
2013-07-17 23:43:00,83.0,34.0,-100.00,WNW,293,7.0,13.0,17,0.00,,,0.00,0.000000,,2013-07-18 06:43:00,
2013-07-17 23:51:00,78.0,31.0,-100.00,WNW,303,7.0,15.0,18,0.00,,,0.00,0.000000,,2013-07-18 06:51:00,